Weather History for KCMI - July, 2012

Change the Weather History Date:

Sunday, July 1, 2012

  Actual Average Record
Temperature  
Mean Temperature 82 °F 74 °F  
Max Temperature 92 °F 85 °F - ()
Min Temperature 71 °F 64 °F - ()
Degree Days  
Heating Degree Days 0 0  
Month to date heating degree days 0 0  
Since 1 June heating degree days 14 17  
Since 1 July heating degree days 0 0  
Cooling Degree Days 17 9  
Month to date cooling degree days 17 9  
Year to date cooling degree days 471 324  
Since 1 June cooling degree days 245 232  
Growing Degree Days 32 (Base 50)    
Moisture  
Dew Point 73 °F    
Average Humidity 73    
Maximum Humidity 94    
Minimum Humidity 52    
Precipitation  
Precipitation 0.00 in 0.10 in - ()
Month to date precipitation 0.00 0.10  
Year to date precipitation 12.26 19.43  
Sea Level Pressure  
Sea Level Pressure 29.93 in    
Wind  
Wind Speed 5 mph (ESE)    
Max Wind Speed 16 mph    
Max Gust Speed 20 mph    
Visibility 8 miles    
Events Thunderstorm    
T = Trace of Precipitation, MM = Missing Value Source: NWS Daily Summary

Daily Weather History Graph

Daily Weather History Graph

Search for Another Location

Airport or City:

Trip Planner

Search our weather history database for the weather conditions in past years. The results will help you decide how hot, cold, wet, or windy it might be!

Date:

Astronomy

Jul. 01, 2012 Rise Set
Actual Time 5:28 AM CDT 8:25 PM CDT
Civil Twilight 4:55 AM CDT 8:58 PM CDT
Nautical Twilight 4:13 AM CDT 9:39 PM CDT
Astronomical Twilight 3:25 AM CDT 10:27 PM CDT
Moon 6:28 PM CDT (7/1) 3:15 AM CDT (7/1)
Length of Visible Light 16h 03m
Length of Day
14h 57m
Waxing Gibbous, 94% of the Moon is Illuminated
Jul 1
Waxing Gibbous
Jul 3
Full
Jul 10
Last Quarter
Jul 18
New
Jul 26
First Quarter

Hourly Weather History & Observations

Time (CDT) Temp. Heat Index Dew Point Humidity Pressure Visibility Wind Dir Wind Speed Gust Speed Precip Events Conditions
12:31 AM 75.2 °F - 71.6 °F 89% 29.89 in 8.0 mi Calm Calm - N/A Thunderstorm Partly Cloudy
12:53 AM 75.0 °F - 71.1 °F 87% 29.88 in 9.0 mi ESE 4.6 mph - N/A   Clear
1:53 AM 73.9 °F - 71.1 °F 91% 29.88 in 9.0 mi SSW 4.6 mph - N/A   Scattered Clouds
2:53 AM 72.0 °F - 70.0 °F 93% 29.89 in 6.0 mi East 4.6 mph - N/A   Clear
3:53 AM 72.0 °F - 70.0 °F 93% 29.88 in 8.0 mi Calm Calm - N/A   Clear
4:53 AM 73.0 °F - 70.0 °F 90% 29.88 in 6.0 mi East 5.8 mph - N/A   Clear
5:53 AM 72.0 °F - 70.0 °F 93% 29.90 in 4.0 mi SE 3.5 mph - N/A   Clear
6:53 AM 75.2 °F - 71.6 °F 89% 29.93 in 5.0 mi East 4.6 mph - N/A   Clear
7:53 AM 75.9 °F - 72.0 °F 87% 29.94 in 6.0 mi East 4.6 mph - N/A   Clear
8:53 AM 79.0 °F - 73.0 °F 82% 29.94 in 7.0 mi East 5.8 mph - N/A   Clear
9:53 AM 81.0 °F 86.2 °F 73.9 °F 79% 29.96 in 8.0 mi Calm Calm - N/A   Clear
10:53 AM 84.0 °F 92.6 °F 75.9 °F 76% 29.97 in 7.0 mi Calm Calm - N/A   Clear
11:53 AM 87.1 °F 98.8 °F 77.0 °F 72% 29.95 in 8.0 mi Calm Calm - N/A   Clear
12:53 PM 88.0 °F 100.2 °F 77.0 °F 70% 29.96 in 9.0 mi WNW 4.6 mph - N/A   Clear
1:53 PM 88.0 °F 97.5 °F 75.0 °F 65% 29.96 in 10.0 mi NW 9.2 mph - N/A   Clear
2:53 PM 91.0 °F 99.3 °F 73.0 °F 55% 29.96 in 10.0 mi North 8.1 mph - N/A   Clear
3:53 PM 91.0 °F 97.6 °F 71.1 °F 52% 29.96 in 10.0 mi ENE 8.1 mph - N/A   Clear
4:53 PM 91.0 °F 98.2 °F 72.0 °F 53% 29.94 in 10.0 mi East 8.1 mph - N/A   Clear
5:53 PM 88.0 °F 98.5 °F 75.9 °F 67% 29.93 in 10.0 mi East 11.5 mph - N/A   Clear
6:53 PM 86.0 °F 96.9 °F 77.0 °F 74% 29.91 in 9.0 mi ESE 4.6 mph - N/A   Clear
7:53 PM 82.0 °F 90.2 °F 77.0 °F 85% 29.93 in 7.0 mi SE 6.9 mph - N/A   Clear
8:53 PM 79.0 °F - 75.0 °F 88% 29.94 in 6.0 mi ESE 4.6 mph - N/A   Haze
9:53 PM 75.9 °F - 73.9 °F 94% 29.96 in 6.0 mi ESE 6.9 mph - N/A   Haze
10:53 PM 75.0 °F - 72.0 °F 90% 29.96 in 5.0 mi ESE 3.5 mph - N/A   Clear
11:53 PM 73.0 °F - 71.1 °F 93% 29.96 in 5.0 mi SE 5.8 mph - N/A   Clear